DW7589 Weather Reports


time (UTC)temp
F
wind
direction
speed
knots
gust
knots
rain 1hr
in
rain 24hr
in
rain mn
in
humidity
%
barometer
mb
20260505184426 84 0 0.0 0.0 0.00 0.00 0.00 69 1005.8
20260505183924 84 0 0.0 0.0 0.00 0.00 0.00 68 1005.9
20260505183426 84 0 0.0 0.0 0.00 0.00 0.00 68 1005.9
20260505182924 83 0 0.0 0.0 0.00 0.00 0.00 68 1006.0
20260505182425 83 0 0.0 0.0 0.00 0.00 0.00 70 1006.1
20260505181424 82 0 0.0 0.0 0.00 0.00 0.00 70 1006.2
20260505180424 82 0 0.0 0.0 0.00 0.00 0.00 70 1006.2
20260505175924 82 0 0.0 0.0 0.00 0.00 0.00 71 1006.4
20260505175424 82 0 0.0 0.0 0.00 0.00 0.00 71 1006.4
20260505174925 81 0 0.0 0.0 0.00 0.00 0.00 71 1006.4
20260505174424 81 0 0.0 0.0 0.00 0.00 0.00 71 1006.3
20260505173924 81 0 0.0 0.0 0.00 0.00 0.00 71 1006.5
20260505173424 81 0 0.0 0.0 0.00 0.00 0.00 72 1006.5
20260505172925 81 0 0.0 0.0 0.00 0.00 0.00 71 1006.5
20260505172424 81 0 0.0 0.0 0.00 0.00 0.00 71 1006.4
20260505171925 81 0 0.0 0.0 0.00 0.00 0.00 71 1006.4
20260505171424 81 0 0.0 0.0 0.00 0.00 0.00 71 1006.3
20260505170924 81 0 0.0 0.0 0.00 0.00 0.00 71 1006.4
20260505165425 81 0 0.0 0.0 0.00 0.00 0.00 71 1006.6
20260505164426 80 0 0.0 0.0 0.00 0.00 0.00 74 1006.6
20260505163925 79 0 0.0 0.0 0.00 0.00 0.00 73 1006.7
20260505163425 79 0 0.0 0.0 0.00 0.00 0.00 74 1006.8
20260505162924 79 0 0.0 0.0 0.00 0.00 0.00 74 1006.8
20260505162426 79 0 0.0 0.0 0.00 0.00 0.00 74 1006.8
20260505161426 78 0 0.0 0.0 0.00 0.00 0.00 76 1006.9
20260505160924 78 0 0.0 0.0 0.00 0.00 0.00 75 1006.8
20260505152926 76 0 0.0 0.0 0.00 0.00 0.00 81 1007.0
20260505152424 76 0 0.0 0.0 0.00 0.00 0.00 81 1007.0
20260505151925 76 0 0.0 0.0 0.00 0.00 0.00 82 1007.0
20260505151424 75 0 0.0 0.0 0.00 0.00 0.00 82 1007.0
20260505150425 75 0 0.0 0.0 0.00 0.00 0.00 82 1006.9
20260505140425 73 0 0.0 0.0 0.00 0.00 0.00 85 1006.6
20260505124924 71 0 0.0 0.0 0.00 0.00 0.00 87 1006.2
20260505123924 71 0 0.0 0.0 0.00 0.00 0.00 87 1006.0
20260505123425 71 0 0.0 0.0 0.00 0.00 0.00 87 1006.1
20260505122925 71 0 0.0 0.0 0.00 0.00 0.00 87 1005.9
20260505121425 72 0 0.0 0.0 0.00 0.00 0.00 87 1005.7
20260505120924 72 0 0.0 0.0 0.00 0.00 0.00 87 1005.6
20260505120426 71 0 0.0 0.0 0.00 0.00 0.00 87 1005.4
20260505115925 71 0 0.0 0.0 0.00 0.00 0.00 87 1005.4
20260505115424 71 0 0.0 0.0 0.00 0.00 0.00 87 1005.4
20260505114925 71 0 0.0 0.0 0.00 0.00 0.00 87 1005.5
20260505114425 71 0 0.0 0.0 0.00 0.00 0.00 87 1005.5
20260505113925 71 0 0.0 0.0 0.00 0.00 0.00 87 1005.4
20260505113425 71 0 0.0 0.0 0.00 0.00 0.00 87 1005.3
20260505112425 71 0 0.0 0.0 0.00 0.00 0.00 87 1005.1
20260505111925 71 0 0.0 0.0 0.00 0.00 0.00 87 1005.3
20260505111425 71 0 0.0 0.0 0.00 0.00 0.00 87 1005.5
20260505110425 71 0 0.0 0.0 0.00 0.00 0.00 87 1005.4
20260505101924 71 0 0.0 0.0 0.00 0.00 0.00 87 1005.5
20260505101426 71 0 0.0 0.0 0.00 0.00 0.00 87 1005.5
20260505100926 71 0 0.0 0.0 0.00 0.00 0.00 87 1005.6
20260505100426 71 0 0.0 0.0 0.00 0.00 0.00 87 1005.7
20260505095426 71 0 0.0 0.0 0.00 0.00 0.00 87 1005.5
20260505094925 71 0 0.0 0.0 0.00 0.00 0.00 87 1005.6
20260505094425 71 0 0.0 0.0 0.00 0.00 0.00 87 1005.7
20260505092925 71 0 0.0 0.0 0.00 0.00 0.00 87 1005.6
20260505092426 71 0 0.0 0.0 0.00 0.00 0.00 86 1005.6
20260505091925 71 0 0.0 0.0 0.00 0.00 0.00 86 1005.7
20260505091426 71 0 0.0 0.0 0.00 0.00 0.00 86 1005.7
20260505090926 71 0 0.0 0.0 0.00 0.00 0.00 86 1005.7
20260505090425 71 0 0.0 0.0 0.00 0.00 0.00 86 1005.7
20260505085925 71 0 0.0 0.0 0.00 0.00 0.00 86 1005.7
20260505085426 71 0 0.0 0.0 0.00 0.00 0.00 86 1005.8
20260505083925 71 0 0.0 0.0 0.00 0.00 0.00 86 1005.7
20260505083425 71 0 0.0 0.0 0.00 0.00 0.00 86 1005.7
20260505082925 71 0 0.0 0.0 0.00 0.00 0.00 86 1005.7
20260505082425 71 0 0.0 0.0 0.00 0.00 0.00 86 1005.9
20260505081925 71 0 0.0 0.0 0.00 0.00 0.00 86 1005.9
20260505081425 71 0 0.0 0.0 0.00 0.00 0.00 86 1005.9
20260505080926 71 0 0.0 0.0 0.00 0.00 0.00 85 1005.9
20260505080426 71 0 0.0 0.0 0.00 0.00 0.00 85 1006.0
20260505075925 71 0 0.0 0.0 0.00 0.00 0.00 85 1006.0
20260505075425 71 0 0.0 0.0 0.00 0.00 0.00 85 1006.2
20260505073425 72 0 0.0 0.0 0.00 0.00 0.00 85 1006.5
20260505072426 72 0 0.0 0.0 0.00 0.00 0.00 84 1006.4
20260505071925 72 0 0.0 0.0 0.00 0.00 0.00 84 1006.6
20260505071425 72 0 0.0 0.0 0.00 0.00 0.00 84 1006.6
20260505070925 72 0 0.0 0.0 0.00 0.00 0.00 84 1006.7
20260505070426 72 0 0.0 0.0 0.00 0.00 0.00 84 1006.8
20260505065925 72 0 0.0 0.0 0.00 0.00 0.00 84 1006.9
20260505064425 72 0 0.0 0.0 0.00 0.00 0.00 84 1007.3
20260505063926 72 0 0.0 0.0 0.00 0.00 0.00 84 1007.3
20260505063425 72 0 0.0 0.0 0.00 0.00 0.00 84 1007.3
20260505062425 72 0 0.0 0.0 0.00 0.00 0.00 84 1007.4
20260505061925 71 0 0.0 0.0 0.00 0.00 0.00 85 1007.6
20260505061425 71 0 0.0 0.0 0.00 0.00 0.00 84 1007.5
20260505060925 72 0 0.0 0.0 0.00 0.00 0.00 84 1007.5
20260505060426 72 0 0.0 0.0 0.00 0.00 0.00 84 1007.5
20260505055925 72 0 0.0 0.0 0.00 0.00 0.00 83 1007.5
20260505054925 72 0 0.0 0.0 0.00 0.00 0.00 83 1007.6
20260505054425 72 0 0.0 0.0 0.00 0.00 0.00 82 1007.7
20260505053925 72 0 0.0 0.0 0.00 0.00 0.00 82 1007.6
20260505053425 72 0 0.0 0.0 0.00 0.00 0.00 82 1007.6
20260505052925 72 0 0.0 0.0 0.00 0.00 0.00 82 1007.5
20260505052426 72 0 0.0 0.0 0.00 0.00 0.00 81 1007.5
20260505051926 73 0 0.0 0.0 0.00 0.00 0.00 81 1007.6
20260505051426 73 0 0.0 0.0 0.00 0.00 0.00 81 1007.7
20260505050425 73 0 0.0 0.0 0.00 0.00 0.00 80 1007.7
20260505041427 74 0 0.0 0.0 0.00 0.00 0.00 77 1007.6
20260505040926 74 0 0.0 0.0 0.00 0.00 0.00 76 1007.6
20260505035927 74 0 0.0 0.0 0.00 0.00 0.00 75 1007.4
20260505034426 75 0 0.0 0.0 0.00 0.00 0.00 74 1007.5
20260505033925 75 0 0.0 0.0 0.00 0.00 0.00 73 1007.5
20260505032925 75 0 0.0 0.0 0.00 0.00 0.00 73 1007.5
20260505032425 75 0 0.0 0.0 0.00 0.00 0.00 72 1007.3
20260505031426 75 0 0.0 0.0 0.00 0.00 0.00 72 1007.5
20260505030926 75 0 0.0 0.0 0.00 0.00 0.00 72 1007.4
20260505030425 75 0 0.0 0.0 0.00 0.00 0.00 72 1007.5
20260505025926 76 0 0.0 0.0 0.00 0.00 0.00 71 1007.5
20260505025426 76 0 0.0 0.0 0.00 0.00 0.00 71 1007.3
20260505024926 76 0 0.0 0.0 0.00 0.00 0.00 71 1007.3
20260505024426 76 0 0.0 0.0 0.00 0.00 0.00 71 1007.3
20260505023926 76 0 0.0 0.0 0.00 0.00 0.00 71 1007.2
20260505023425 76 0 0.0 0.0 0.00 0.00 0.00 70 1007.3
20260505022926 76 0 0.0 0.0 0.00 0.00 0.00 70 1007.2
20260505022426 76 0 0.0 0.0 0.00 0.00 0.00 70 1007.0
20260505021427 76 0 0.0 0.0 0.00 0.00 0.00 69 1007.0
20260505020925 76 0 0.0 0.0 0.00 0.00 0.00 69 1007.0
20260505020426 76 0 0.0 0.0 0.00 0.00 0.00 69 1007.0
20260505015925 76 0 0.0 0.0 0.00 0.00 0.00 69 1006.9
20260505014926 77 0 0.0 0.0 0.00 0.00 0.00 69 1006.8
20260505013925 77 0 0.0 0.0 0.00 0.00 0.00 68 1006.5
20260505013426 77 0 0.0 0.0 0.00 0.00 0.00 68 1006.5
20260505012927 77 0 0.0 0.0 0.00 0.00 0.00 68 1006.4
20260505012425 77 0 0.0 0.0 0.00 0.00 0.00 68 1006.5
20260505011425 77 0 0.0 0.0 0.00 0.00 0.00 67 1006.7
20260505010425 78 0 0.0 0.0 0.00 0.00 0.00 67 1006.6
20260505005427 78 0 0.0 0.0 0.00 0.00 0.00 66 1006.7
20260505004925 78 0 0.0 0.0 0.00 0.00 0.00 66 1006.8
20260505004426 78 0 0.0 0.0 0.00 0.00 0.00 65 1006.9
20260505003925 79 0 0.0 0.0 0.00 0.00 0.00 65 1006.9
20260505003426 79 0 0.0 0.0 0.00 0.00 0.00 64 1006.9
20260505002926 79 0 0.0 0.0 0.00 0.00 0.00 64 1006.9
20260505002427 79 0 0.0 0.0 0.00 0.00 0.00 63 1006.9
20260505001926 80 0 0.0 0.0 0.00 0.00 0.00 63 1006.8
20260505001426 80 0 0.0 0.0 0.00 0.00 0.00 62 1006.9
20260505000925 80 0 0.0 0.0 0.00 0.00 0.00 63 1006.8
20260505000428 80 0 0.0 0.0 0.00 0.00 0.00 62 1006.9
20260504235926 80 0 0.0 0.0 0.00 0.00 0.00 62 1006.9
20260504235426 80 0 0.0 0.0 0.00 0.00 0.00 61 1006.9
20260504234927 80 0 0.0 0.0 0.00 0.00 0.00 61 1007.0
20260504234425 81 0 0.0 0.0 0.00 0.00 0.00 61 1007.0
20260504233926 81 0 0.0 0.0 0.00 0.00 0.00 61 1007.2
20260504233426 80 0 0.0 0.0 0.00 0.00 0.00 61 1007.1
20260504232925 80 0 0.0 0.0 0.00 0.00 0.00 61 1007.2
20260504232426 81 0 0.0 0.0 0.00 0.00 0.00 61 1007.3
20260504231927 81 0 0.0 0.0 0.00 0.00 0.00 61 1007.3
20260504230926 80 0 0.0 0.0 0.00 0.00 0.00 61 1007.3
20260504225926 80 0 0.0 0.0 0.00 0.00 0.00 61 1007.6
20260504225425 80 0 0.0 0.0 0.00 0.00 0.00 61 1007.7
20260504224926 80 0 0.0 0.0 0.00 0.00 0.00 62 1007.7
20260504224425 80 0 0.0 0.0 0.00 0.00 0.00 63 1007.9
20260504223926 80 0 0.0 0.0 0.00 0.00 0.00 62 1007.7
20260504223425 80 0 0.0 0.0 0.00 0.00 0.00 62 1007.8
20260504222426 80 0 0.0 0.0 0.00 0.00 0.00 63 1007.7
20260504221926 80 0 0.0 0.0 0.00 0.00 0.00 62 1007.8
20260504220927 80 0 0.0 0.0 0.00 0.00 0.00 62 1008.0
20260504220427 80 0 0.0 0.0 0.00 0.00 0.00 62 1008.2
20260504215926 80 0 0.0 0.0 0.00 0.00 0.00 62 1008.3
20260504215426 80 0 0.0 0.0 0.00 0.00 0.00 62 1008.1
20260504214925 80 0 0.0 0.0 0.00 0.00 0.00 61 1008.4
20260504214426 80 0 0.0 0.0 0.00 0.00 0.00 61 1008.3
20260504213926 80 0 0.0 0.0 0.00 0.00 0.00 61 1008.3
20260504213427 80 0 0.0 0.0 0.00 0.00 0.00 61 1008.3
20260504212927 80 0 0.0 0.0 0.00 0.00 0.00 60 1008.5
20260504211426 80 0 0.0 0.0 0.00 0.00 0.00 60 1008.8
20260504210925 80 0 0.0 0.0 0.00 0.00 0.00 59 1008.9
20260504210426 81 0 0.0 0.0 0.00 0.00 0.00 60 1009.0
20260504205926 80 0 0.0 0.0 0.00 0.00 0.00 59 1009.1
20260504205426 80 0 0.0 0.0 0.00 0.00 0.00 61 1009.2
20260504204425 79 0 0.0 0.0 0.00 0.00 0.00 61 1009.4
20260504203926 79 0 0.0 0.0 0.00 0.00 0.00 61 1009.4
20260504201926 80 0 0.0 0.0 0.00 0.00 0.00 59 1009.9
20260504201426 80 0 0.0 0.0 0.00 0.00 0.00 60 1010.0
20260504200927 80 0 0.0 0.0 0.00 0.00 0.00 61 1010.1
20260504200425 80 0 0.0 0.0 0.00 0.00 0.00 60 1010.4
20260504195926 79 0 0.0 0.0 0.00 0.00 0.00 60 1010.3
20260504194926 79 0 0.0 0.0 0.00 0.00 0.00 60 1010.5
20260504194426 79 0 0.0 0.0 0.00 0.00 0.00 59 1010.4
20260504193926 80 0 0.0 0.0 0.00 0.00 0.00 59 1010.6
20260504193426 80 0 0.0 0.0 0.00 0.00 0.00 61 1010.6
20260504192426 79 0 0.0 0.0 0.00 0.00 0.00 60 1010.7
20260504191925 80 0 0.0 0.0 0.00 0.00 0.00 60 1010.8
20260504191427 79 0 0.0 0.0 0.00 0.00 0.00 61 1010.9
20260504190927 79 0 0.0 0.0 0.00 0.00 0.00 60 1011.0
20260504190426 79 0 0.0 0.0 0.00 0.00 0.00 59 1011.0
20260504185926 79 0 0.0 0.0 0.00 0.00 0.00 61 1011.1
20260504185427 78 0 0.0 0.0 0.00 0.00 0.00 60 1011.1